1486371600.87,50602,11.31,72694.3,1.51,-31.29,-32.35,0,*77
1486371602.13,50603,11.31,72698.5,1.49,-31.91,-32.79,0,*74
1486371603.36,50604,11.31,72694.8,1.49,-31.85,-32.91,0,*70
1486371604.58,50605,11.31,72696.0,1.51,-31.67,-32.57,0,*7E
1486371605.82,50606,11.31,72698.0,1.49,-31.95,-33.15,0,*7E
1486371607.07,50607,11.31,72698.0,1.51,-32.19,-33.15,0,*71
1486371608.3,50608,11.31,72696.5,1.51,-31.67,-32.69,0,*7E
1486371609.53,50609,11.31,72694.8,1.53,-31.79,-32.63,0,*78
1486371610.78,50610,11.31,72696.8,1.53,-31.85,-32.97,0,*78
1486371612.01,50611,11.38,72698.5,1.53,-32.19,-33.21,0,*73
1486371613.24,50612,11.31,72696.3,1.55,-32.01,-33.03,0,*7F
1486371614.44,50613,11.31,72696.0,1.53,-32.35,-33.37,0,*78
1486371615.65,50614,11.31,72698.8,1.53,-32.01,-33.03,0,*7F
1486371616.91,50615,11.31,72698.0,1.55,-32.69,-33.77,0,*75
1486371618.13,50616,11.31,72696.3,1.53,-33.21,-34.19,0,*72
1486371619.33,50617,11.31,72698.8,1.53,-33.03,-34.07,0,*7C
1486371620.58,50618,11.31,72696.3,1.51,-33.43,-34.25,0,*75
1486371621.85,50619,11.31,72698.3,1.51,-33.43,-34.35,0,*75
1486371623.1,50620,11.31,72696.8,1.51,-32.57,-33.49,0,*77
1486371624.36,50621,11.38,72698.8,1.51,-32.07,-33.15,0,*7A
1486371625.62,50622,11.31,72696.3,1.51,-33.77,-34.71,0,*7A
1486371626.87,50623,11.31,72698.0,1.49,-34.01,-34.83,0,*79
1486371628.09,50624,11.31,72696.3,1.49,-33.89,-34.77,0,*72
1486371629.37,50625,11.31,72696.8,1.51,-33.27,-34.19,0,*76
1486371630.56,50626,11.31,72696.5,1.49,-33.55,-34.41,0,*74
1486371631.81,50627,11.31,72692.0,1.49,-32.79,-33.73,0,*7C
1486371633.04,50628,11.31,72698.8,1.49,-33.37,-34.31,0,*79
1486371634.29,50629,11.31,72698.3,1.47,-33.89,-34.77,0,*71
1486371635.58,50630,11.38,72698.8,1.47,-33.09,-34.01,0,*70
1486371636.84,50631,11.31,72698.0,1.47,-32.75,-33.37,0,*79
1486371638.09,50632,11.31,72698.0,1.47,-32.75,-33.55,0,*7E
1486371639.34,50633,11.38,72700.3,1.49,-33.09,-34.19,0,*74
1486371640.57,50634,11.38,72698.5,1.47,-33.67,-34.41,0,*78
1486371641.84,50635,11.38,72696.8,1.47,-33.31,-34.31,0,*7D
1486371643.11,50636,11.31,72698.0,1.45,-33.73,-34.65,0,*7B
1486371644.37,50637,11.31,72698.3,1.47,-33.21,-34.01,0,*7D
1486371645.58,50638,11.31,72696.8,1.45,-32.69,-33.37,0,*7F
1486371646.86,50639,11.31,72696.3,1.47,-32.63,-33.49,0,*7F
1486371648.11,50640,11.31,72698.8,1.47,-32.23,-32.97,0,*77
1486371649.31,50641,11.31,72698.3,1.49,-32.57,-33.21,0,*77
1486371650.55,50642,11.31,72696.3,1.45,-33.73,-34.47,0,*78
1486371651.8,50643,11.38,72696.5,1.47,-33.49,-34.41,0,*74
1486371653.05,50644,11.31,72696.5,1.47,-32.97,-33.83,0,*78
1486371654.31,50645,11.38,72702.3,1.47,-32.57,-33.31,0,*7C
1486371655.56,50646,11.31,72696.3,1.47,-32.45,-33.21,0,*7D
1486371656.82,50647,11.38,72702.5,1.47,-32.45,-33.15,0,*7B
1486371658.07,50648,11.38,72698.8,1.51,-32.57,-33.31,0,*76
1486371659.33,50649,11.31,72698.5,1.49,-32.45,-33.09,0,*76
1486371660.55,50650,11.38,72700.3,1.51,-32.51,-33.15,0,*7F
1486371661.81,50651,11.31,72698.5,1.51,-32.57,-33.27,0,*79
1486371663.08,50652,11.38,72698.5,1.49,-32.07,-32.75,0,*70
1486371664.33,50653,11.38,72702.0,1.51,-31.91,-32.69,0,*79
1486371665.59,50654,11.31,72698.8,1.51,-32.51,-33.09,0,*76
1486371666.84,50655,11.38,72696.8,1.53,-33.09,-33.73,0,*74
1486371668.07,50656,11.31,72696.8,1.53,-33.09,-33.95,0,*7F
1486371669.3,50657,11.38,72698.8,1.55,-33.37,-34.07,0,*79
1486371670.53,50658,11.31,72696.8,1.55,-33.37,-34.13,0,*73
1486371671.79,50659,11.38,72698.5,1.53,-33.77,-34.53,0,*74
1486371673.01,50660,11.38,72700.3,1.53,-33.27,-34.07,0,*7A
1486371674.23,50661,11.31,72698.3,1.53,-33.55,-34.31,0,*7B
1486371675.47,50662,11.31,72698.5,1.51,-33.61,-34.25,0,*78
1486371676.7,50663,11.31,72696.0,1.51,-33.83,-34.71,0,*74
1486371677.96,50664,11.31,72696.0,1.51,-34.77,-35.53,0,*7E
1486371679.18,50665,11.38,72698.3,1.49,-34.59,-35.29,0,*77
1486371680.39,50666,11.38,72700.8,1.49,-34.07,-34.77,0,*75
1486371681.6,50667,11.38,72698.8,1.49,-34.47,-35.13,0,*73
1486371682.83,50668,11.38,72702.3,1.49,-34.77,-35.41,0,*78
1486371684.07,50669,11.38,72698.3,1.45,-35.17,-35.83,0,*7C
1486371685.31,50670,11.31,72698.3,1.45,-34.71,-35.35,0,*78
1486371686.56,50671,11.31,72692.8,1.45,-34.35,-35.07,0,*78
1486371687.8,50672,11.38,72696.8,1.45,-34.35,-35.01,0,*7D
1486371689.04,50673,11.31,72696.8,1.43,-34.47,-35.17,0,*78
1486371690.27,50674,11.38,72698.8,1.39,-34.59,-35.23,0,*7A
1486371691.53,50675,11.31,72698.3,1.39,-34.35,-34.95,0,*7D
1486371692.76,50676,11.38,72698.5,1.43,-34.25,-34.89,0,*7F
1486371694.02,50677,11.38,72698.3,1.39,-34.35,-34.95,0,*7F
1486371695.27,50678,11.38,72698.8,1.37,-34.19,-34.77,0,*7C
1486371696.53,50679,11.38,72698.8,1.37,-34.53,-35.13,0,*70
1486371697.79,50680,11.31,72696.8,1.39,-34.95,-35.53,0,*76
1486371699.07,50681,11.38,72700.5,1.37,-35.07,-35.65,0,*76
1486371700.32,50682,11.38,72698.3,1.35,-34.35,-34.95,0,*79
1486371701.58,50683,11.38,72698.5,1.39,-34.53,-35.07,0,*7E
1486371702.79,50684,11.38,72696.0,1.35,-34.59,-35.17,0,*7E
1486371704.04,50685,11.31,72698.0,1.33,-34.65,-35.17,0,*76
1486371705.25,50686,11.38,72698.3,1.35,-34.47,-35.13,0,*77
1486371706.51,50687,11.38,72700.3,1.33,-34.65,-35.17,0,*74
1486371707.74,50688,11.38,72698.0,1.33,-34.41,-35.01,0,*7A
1486371708.99,50689,11.31,72696.0,1.33,-34.65,-35.17,0,*7A
1486371710.25,50690,11.31,72698.3,1.33,-34.53,-35.17,0,*77
1486371711.5,50691,11.38,72698.0,1.33,-34.41,-35.07,0,*74
1486371712.73,50692,11.38,72698.8,1.31,-34.53,-35.17,0,*77
1486371713.98,50693,11.38,72698.5,1.29,-35.13,-35.65,0,*7F
1486371715.21,50694,11.38,72698.3,1.29,-34.77,-35.29,0,*73
1486371716.5,50695,11.38,72696.0,1.29,-34.95,-35.41,0,*70
1486371717.75,50696,11.31,72694.3,1.29,-35.07,-35.47,0,*7F
1486371718.98,50697,11.38,72698.3,1.27,-35.23,-35.71,0,*73
1486371720.24,50698,11.31,72696.3,1.29,-34.47,-34.95,0,*7A
1486371721.5,50699,11.38,72698.5,1.27,-34.53,-35.07,0,*7A
1486371722.73,50700,11.31,72694.5,1.27,-34.89,-35.41,0,*7E
1486371723.96,50701,11.31,72698.5,1.27,-34.71,-35.23,0,*7C
1486371725.19,50702,11.38,72698.0,1.27,-34.31,-34.77,0,*7B
1486371726.42,50703,11.31,72694.3,1.27,-35.07,-35.59,0,*73
1486371727.65,50704,11.38,72698.5,1.25,-35.13,-35.47,0,*7C
1486371728.91,50705,11.31,72696.5,1.25,-35.01,-35.35,0,*7B
1486371730.17,50706,11.38,72696.0,1.25,-34.65,-35.01,0,*7C
1486371731.38,50707,11.38,72698.3,1.27,-34.77,-35.29,0,*76
1486371732.62,50708,11.38,72696.5,1.23,-34.95,-35.47,0,*79
1486371733.86,50709,11.38,72694.5,1.23,-34.65,-35.17,0,*72
1486371735.09,50710,11.38,72696.8,1.23,-34.83,-35.47,0,*77
1486371736.35,50711,11.31,72694.8,1.25,-35.35,-35.77,0,*7F
1486371737.58,50712,11.38,72696.8,1.25,-35.29,-35.71,0,*77
1486371738.83,50713,11.38,72696.5,1.21,-35.35,-35.77,0,*79
1486371740.11,50714,11.31,72692.0,1.21,-34.83,-35.23,0,*73
1486371741.37,50715,11.38,72698.5,1.17,-34.95,-35.29,0,*7A
1486371742.6,50716,11.38,72696.8,1.21,-35.17,-35.71,0,*7A
1486371743.86,50717,11.38,72698.3,1.21,-35.23,-35.89,0,*7B
1486371745.12,50718,11.38,72694.3,1.17,-34.95,-35.29,0,*77
1486371746.4,50719,11.31,72694.5,1.21,-35.07,-35.53,0,*74
1486371747.64,50720,11.38,72696.0,1.17,-35.29,-35.77,0,*71
1486371748.89,50721,11.38,72698.3,1.17,-35.13,-35.65,0,*7A
1486371750.15,50722,11.38,72698.3,1.17,-34.77,-35.07,0,*7E
1486371751.38,50723,11.38,72698.5,1.17,-34.47,-34.89,0,*7B
1486371752.62,50724,11.38,72698.0,1.17,-34.13,-34.47,0,*7F
1486371753.87,50725,11.38,72696.5,1.21,-34.31,-34.89,0,*79
1486371755.11,50726,11.38,72698.5,1.17,-34.47,-34.77,0,*7F
1486371756.37,50727,11.38,72698.3,1.21,-34.71,-35.23,0,*7E
1486371757.63,50728,11.38,72698.3,1.17,-34.65,-35.13,0,*72
1486371758.91,50729,11.38,72696.0,1.17,-34.31,-34.53,0,*77
1486371760.14,50730,11.38,72698.5,1.21,-34.13,-34.47,0,*7F
1486371761.38,50731,11.38,72698.8,1.21,-34.47,-35.01,0,*7C
1486371762.62,50732,11.38,72696.5,1.17,-34.77,-35.13,0,*7A
1486371763.85,50733,11.38,72696.0,1.17,-34.47,-34.71,0,*7D
1486371765.07,50734,11.31,72694.0,1.21,-33.95,-34.41,0,*74
1486371766.33,50735,11.38,72696.3,1.21,-34.31,-34.71,0,*7F
1486371767.56,50736,11.38,72696.0,1.21,-34.71,-35.17,0,*79
1486371768.83,50737,11.38,72698.8,1.21,-34.83,-35.23,0,*72
1486371770.1,50738,11.38,72694.3,1.17,-34.95,-35.29,0,*75
1486371771.36,50739,11.38,72698.5,1.21,-34.65,-35.17,0,*73
1486371772.61,50740,11.38,72696.3,1.21,-34.71,-35.07,0,*79
1486371773.9,50741,11.38,72696.3,1.21,-34.31,-34.65,0,*79
1486371775.12,50742,11.38,72696.8,1.21,-34.25,-34.59,0,*70
1486371776.36,50743,11.38,72694.0,1.17,-34.77,-35.13,0,*7C
1486371777.61,50744,11.38,72696.0,1.21,-34.07,-34.31,0,*78
1486371778.87,50745,11.38,72694.5,1.23,-33.43,-33.73,0,*7D
1486371780.12,50746,11.38,72698.0,1.23,-33.31,-33.73,0,*7B
1486371781.33,50747,11.38,72696.3,1.23,-33.83,-34.07,0,*77
1486371782.53,50748,11.38,72696.8,1.23,-34.07,-34.41,0,*71
1486371783.77,50749,11.38,72696.5,1.25,-34.59,-35.01,0,*78
1486371785.0,50750,11.38,72696.8,1.23,-34.41,-34.83,0,*74
1486371786.24,50751,11.38,72698.8,1.23,-34.65,-35.01,0,*78
1486371787.47,50752,11.38,72696.0,1.23,-35.01,-35.35,0,*7F
1486371788.71,50753,11.38,72696.8,1.23,-34.59,-34.83,0,*7E
1486371789.95,50754,11.38,72696.0,1.23,-34.59,-34.95,0,*7E
1486371791.16,50755,11.38,72696.5,1.23,-34.77,-35.17,0,*78
1486371792.39,50756,11.38,72698.0,1.23,-34.95,-35.17,0,*77
1486371793.65,50757,11.38,72698.3,1.23,-34.35,-34.53,0,*7D
1486371794.89,50758,11.38,72696.5,1.23,-35.01,-35.35,0,*75
1486371796.12,50759,11.38,72698.5,1.23,-35.47,-35.65,0,*73
1486371797.35,50760,11.38,72698.3,1.23,-34.95,-35.17,0,*72
1486371798.6,50761,11.38,72698.0,1.21,-35.17,-35.41,0,*79
1486371799.83,50762,11.38,72696.3,1.21,-34.59,-34.71,0,*73
1486371801.07,50763,11.38,72698.0,1.21,-34.47,-34.71,0,*7D
1486371802.3,50764,11.38,72698.0,1.23,-34.83,-35.17,0,*71
1486371803.54,50765,11.38,72696.5,1.23,-34.95,-35.17,0,*77
1486371804.78,50766,11.38,72698.5,1.23,-34.95,-35.29,0,*79
1486371806.03,50767,11.38,72696.5,1.21,-34.65,-34.89,0,*7E
1486371807.26,50768,11.38,72698.3,1.21,-34.59,-34.89,0,*7E
1486371808.51,50769,11.38,72700.0,1.21,-35.35,-35.59,0,*78
1486371809.79,50770,11.38,72696.0,1.21,-35.07,-35.35,0,*7B
1486371811.03,50771,11.38,72698.0,1.17,-34.47,-34.71,0,*7B
1486371812.28,50772,11.38,72694.3,1.21,-34.41,-34.65,0,*7E
1486371813.54,50773,11.38,72694.5,1.17,-34.13,-34.35,0,*78
1486371814.77,50774,11.38,72698.0,1.23,-34.25,-34.65,0,*78
1486371816.0,50775,11.38,72696.3,1.23,-34.25,-34.53,0,*7C
1486371817.24,50776,11.38,72694.8,1.23,-34.53,-34.77,0,*78
1486371818.47,50777,11.38,72698.3,1.23,-34.41,-34.65,0,*79
1486371819.68,50778,11.38,72698.0,1.23,-33.55,-33.83,0,*7B
1486371820.9,50779,11.38,72698.8,1.25,-33.83,-34.07,0,*7C
1486371822.15,50780,11.38,72696.0,1.25,-34.35,-34.59,0,*7B
1486371823.4,50781,11.38,72698.0,1.25,-34.07,-34.35,0,*71
1486371824.63,50782,11.38,72696.3,1.25,-34.07,-34.25,0,*73
1486371825.88,50783,11.38,72696.3,1.25,-34.83,-35.13,0,*7A
1486371827.17,50784,11.38,72696.5,1.25,-34.53,-34.65,0,*70
1486371828.4,50785,11.38,72698.5,1.25,-34.41,-34.77,0,*71
1486371829.65,50786,11.38,72696.0,1.27,-34.35,-34.53,0,*75
1486371830.88,50787,11.38,72698.8,1.27,-34.01,-34.13,0,*77
1486371832.11,50788,11.38,72698.3,1.27,-34.13,-34.19,0,*71
1486371833.34,50789,11.38,72698.3,1.27,-34.35,-34.71,0,*7A
1486371834.57,50790,11.38,72696.5,1.27,-34.53,-34.71,0,*72
1486371835.8,50791,11.38,72702.3,1.27,-34.77,-35.07,0,*75
1486371837.05,50792,11.38,72696.5,1.27,-35.07,-35.23,0,*76
1486371838.28,50793,11.38,72698.0,1.27,-34.35,-34.71,0,*71
1486371839.54,50794,11.38,72696.8,1.27,-34.95,-35.23,0,*7A
1486371840.77,50795,11.38,72698.5,1.25,-35.47,-35.89,0,*77
1486371841.98,50796,11.38,72700.8,1.27,-36.19,-36.55,0,*7C
1486371843.26,50797,11.38,72698.8,1.25,-35.65,-35.95,0,*78
1486371844.51,50798,11.38,72696.5,1.25,-35.47,-35.53,0,*7D
1486371845.76,50799,11.38,72702.0,1.25,-35.53,-35.77,0,*7F
1486371846.97,50800,11.38,72696.8,1.23,-35.29,-35.47,0,*78
1486371848.18,50801,11.38,72698.3,1.23,-35.17,-35.47,0,*74
1486371849.41,50802,11.38,72702.3,1.23,-35.53,-35.77,0,*74
1486371850.67,50803,11.38,72698.0,1.23,-34.65,-34.95,0,*7C
1486371851.89,50804,11.38,72696.3,1.23,-34.59,-34.77,0,*78
1486371853.12,50805,11.38,72696.5,1.25,-35.13,-35.29,0,*7A
1486371854.35,50806,11.38,72698.8,1.23,-34.95,-35.17,0,*7D
1486371855.6,50807,11.38,72696.5,1.23,-35.35,-35.53,0,*77
1486371856.84,50808,11.38,72698.8,1.23,-34.95,-35.17,0,*73
1486371858.07,50809,11.38,72698.3,1.21,-35.71,-36.01,0,*7F
1486371859.32,50810,11.38,72698.0,1.21,-35.41,-35.59,0,*7A
1486371860.56,50811,11.38,72696.3,1.21,-35.53,-35.71,0,*72
1486371861.82,50812,11.38,72698.8,1.21,-35.77,-35.95,0,*7D
1486371863.08,50813,11.38,72696.3,1.21,-35.01,-35.07,0,*76
1486371864.36,50814,11.38,72698.0,1.21,-35.07,-35.23,0,*71
1486371865.59,50815,11.38,72696.3,1.17,-35.77,-36.07,0,*77
1486371866.86,50816,11.38,72698.8,1.21,-36.13,-36.37,0,*73
1486371868.1,50817,11.38,72698.3,1.17,-35.77,-35.89,0,*70
1486371869.37,50818,11.38,72698.3,1.17,-35.41,-35.65,0,*78
1486371870.61,50819,11.38,72698.5,1.17,-35.77,-36.01,0,*7D
1486371871.82,50820,11.38,72696.8,1.15,-36.01,-36.43,0,*71
1486371873.06,50821,11.38,72698.0,1.15,-36.25,-36.43,0,*76
1486371874.29,50822,11.38,72694.3,1.15,-36.07,-36.37,0,*76
1486371875.58,50823,11.38,72696.0,1.13,-36.25,-36.49,0,*78
1486371876.84,50824,11.38,72696.8,1.13,-35.89,-36.25,0,*70
1486371878.07,50825,11.38,72698.3,1.13,-35.71,-36.07,0,*76
1486371879.33,50826,11.38,72698.5,1.13,-35.65,-35.89,0,*75
1486371880.55,50827,11.38,72696.0,1.11,-35.53,-35.71,0,*74
1486371881.76,50828,11.38,72696.8,1.11,-36.07,-36.31,0,*7E
1486371882.99,50829,11.38,72698.5,1.11,-36.31,-36.61,0,*7F
1486371884.23,50830,11.38,72698.3,1.09,-36.01,-36.31,0,*78
1486371885.46,50831,11.38,72698.3,1.11,-35.71,-35.83,0,*7E
1486371886.71,50832,11.38,72696.5,1.09,-36.19,-36.49,0,*7C
1486371887.96,50833,11.38,72696.5,1.09,-35.41,-35.71,0,*7B
1486371889.19,50834,11.38,72698.5,1.09,-34.89,-35.13,0,*7D
1486371890.47,50835,11.38,72698.0,1.09,-35.23,-35.53,0,*79
1486371891.72,50836,11.38,72696.3,1.09,-36.01,-36.37,0,*78
1486371892.96,50837,11.38,72698.5,1.11,-35.71,-35.83,0,*78
1486371894.19,50838,11.38,72698.8,1.09,-35.59,-35.89,0,*7E
1486371895.45,50839,11.38,72696.5,1.09,-35.35,-35.71,0,*72
1486371896.71,50840,11.38,72702.3,1.09,-35.71,-35.95,0,*76
1486371897.94,50841,11.38,72698.8,1.09,-35.59,-35.77,0,*71
1486371899.21,50842,11.38,72696.3,1.09,-34.47,-34.65,0,*7E
1486371900.43,50843,11.38,72698.5,1.11,-34.25,-34.35,0,*77
1486371901.66,50844,11.38,72696.3,1.11,-34.07,-34.35,0,*70
1486371902.86,50845,11.38,72698.0,1.11,-34.25,-34.41,0,*72
1486371904.08,50846,11.38,72698.5,1.13,-34.25,-34.41,0,*73
1486371905.35,50847,11.38,72698.0,1.15,-34.95,-35.23,0,*7A
1486371906.59,50848,11.38,72698.3,1.15,-34.83,-35.13,0,*71
1486371907.83,50849,11.38,72696.5,1.13,-35.71,-35.89,0,*79
1486371909.07,50850,11.38,72698.3,1.15,-35.07,-35.29,0,*7C
1486371910.31,50851,11.38,72698.8,1.15,-34.77,-34.95,0,*7D
1486371911.55,50852,11.38,72700.3,1.13,-35.13,-35.29,0,*7D
1486371912.81,50853,11.38,72698.0,1.15,-34.95,-35.23,0,*7F
1486371914.06,50854,11.38,72696.3,1.15,-34.65,-34.77,0,*77
1486371915.27,50855,11.38,72696.3,1.15,-34.47,-34.47,0,*75
1486371916.54,50856,11.38,72696.8,1.15,-34.35,-34.65,0,*73
1486371917.8,50857,11.38,72696.5,1.17,-34.65,-34.77,0,*76
1486371919.03,50858,11.38,72696.0,1.17,-34.77,-34.89,0,*7B
1486371920.26,50859,11.38,72696.3,1.17,-34.89,-35.13,0,*79
1486371921.54,50860,11.38,72696.8,1.17,-35.07,-35.23,0,*77
1486371922.78,50861,11.38,72700.0,1.17,-35.13,-35.29,0,*79
1486371924.03,50862,11.38,72698.5,1.17,-35.23,-35.47,0,*71
1486371925.29,50863,11.38,72696.0,1.21,-34.83,-35.13,0,*7F
1486371926.54,50864,11.38,72696.5,1.21,-34.89,-35.35,0,*76
1486371927.82,50865,11.38,72698.5,1.21,-34.83,-35.23,0,*7A
1486371929.05,50866,11.38,72698.3,1.23,-34.83,-35.13,0,*78
1486371930.27,50867,11.38,72698.0,1.23,-34.77,-35.01,0,*71
1486371931.52,50868,11.38,72696.5,1.21,-34.71,-34.83,0,*71
1486371932.78,50869,11.38,72700.3,1.21,-34.65,-34.89,0,*7F
1486371934.01,50870,11.38,72696.3,1.23,-35.47,-35.65,0,*77
1486371935.21,50871,11.38,72698.8,1.23,-35.71,-36.07,0,*74
1486371936.47,50872,11.38,72698.3,1.23,-35.95,-36.25,0,*7D
1486371937.73,50873,11.38,72698.3,1.23,-36.49,-36.61,0,*7E
1486371938.96,50874,11.38,72698.3,1.21,-36.55,-36.85,0,*7C
1486371940.21,50875,11.38,72698.0,1.17,-35.83,-36.07,0,*7A
1486371941.46,50876,11.38,72696.0,1.17,-36.01,-36.37,0,*73
1486371942.74,50877,11.38,72700.8,1.17,-36.25,-36.61,0,*77
1486371943.97,50878,11.38,72698.5,1.21,-36.19,-36.55,0,*75
1486371945.18,50879,11.38,72700.0,1.15,-36.01,-36.43,0,*7D
1486371946.4,50880,11.38,72694.3,1.15,-35.77,-35.77,0,*7D
1486371947.64,50881,11.38,72698.3,1.15,-36.01,-36.25,0,*7A
1486371948.85,50882,11.38,72698.5,1.15,-35.89,-36.19,0,*75
1486371950.09,50883,11.38,72698.8,1.15,-35.83,-36.01,0,*77
1486371951.33,50884,11.38,72696.5,1.15,-36.25,-36.43,0,*79
1486371952.56,50885,11.38,72698.8,1.15,-35.41,-35.59,0,*71
1486371953.77,50886,11.38,72698.0,1.15,-34.89,-35.13,0,*79
1486371955.03,50887,11.38,72696.0,1.15,-34.95,-35.23,0,*76
1486371956.26,50888,11.38,72696.8,1.15,-35.13,-35.23,0,*76
1486371957.5,50889,11.38,72698.0,1.15,-35.65,-35.89,0,*76
1486371958.73,50890,11.38,72702.3,1.17,-35.47,-35.59,0,*71
1486371959.96,50891,11.38,72700.0,1.17,-35.29,-35.47,0,*77
1486371961.19,50892,11.38,72696.5,1.17,-35.29,-35.59,0,*7B
1486371962.43,50893,11.38,72698.8,1.17,-35.77,-36.01,0,*7F
1486371963.71,50894,11.38,72696.0,1.17,-36.37,-36.61,0,*79
1486371964.99,50895,11.38,72696.5,1.17,-36.37,-36.61,0,*78
1486371966.25,50896,11.38,72696.5,1.17,-35.83,-35.89,0,*72
1486371967.54,50897,11.38,72696.5,1.13,-36.25,-36.49,0,*77
1486371968.8,50898,11.38,72698.3,1.13,-36.61,-36.97,0,*7B
1486371970.03,50899,11.38,72698.8,1.15,-36.01,-36.37,0,*70
1486371971.28,50900,11.38,72696.0,1.13,-36.79,-36.97,0,*72
1486371972.55,50901,11.38,72698.8,1.13,-36.97,-37.21,0,*7F
1486371973.78,50902,11.38,72694.8,1.13,-36.85,-37.03,0,*7F
1486371975.01,50903,11.38,72698.5,1.11,-36.79,-37.15,0,*78
1486371976.25,50904,11.38,72698.5,1.11,-36.91,-36.97,0,*72
1486371977.48,50905,11.38,72698.3,1.09,-36.73,-37.03,0,*7A
1486371978.7,50906,11.38,72694.5,1.09,-37.03,-37.45,0,*7D
1486371979.95,50907,11.38,72694.0,1.09,-37.09,-37.45,0,*76
1486371981.21,50908,11.38,72696.5,1.07,-37.09,-37.27,0,*73
1486371982.45,50909,11.38,72694.5,1.07,-36.97,-37.15,0,*75
1486371983.69,50910,11.38,72694.8,1.05,-36.73,-37.09,0,*78
1486371984.94,50911,11.38,72694.5,1.05,-36.61,-36.91,0,*7A
1486371986.17,50912,11.38,72698.8,1.05,-36.79,-37.15,0,*7D
1486371987.44,50913,11.38,72696.3,1.07,-36.37,-36.55,0,*71
1486371988.68,50914,11.38,72694.5,1.05,-35.77,-35.95,0,*7C
1486371989.93,50915,11.38,72696.3,1.05,-36.37,-36.61,0,*72
1486371991.16,50916,11.38,72698.8,1.03,-36.31,-36.43,0,*71
1486371992.42,50917,11.38,72696.0,1.03,-36.31,-36.49,0,*7A
1486371993.67,50918,11.38,72698.3,1.03,-36.43,-36.61,0,*7A
1486371994.93,50919,11.38,72700.5,1.03,-36.61,-36.97,0,*72
1486371996.18,50920,11.38,72700.3,1.03,-36.31,-36.61,0,*74
1486371997.38,50921,11.38,72696.0,1.01,-36.01,-36.07,0,*74
1486371998.64,50922,11.38,72698.0,1.03,-35.83,-36.01,0,*7A
1486371999.85,50923,11.38,72698.3,1.01,-35.17,-35.29,0,*7D
1486372001.08,50924,11.38,72696.8,1.03,-35.89,-36.07,0,*70
1486372002.34,50925,11.38,72696.8,1.07,-36.25,-36.43,0,*70
1486372003.6,50926,11.38,72696.5,1.05,-36.37,-36.61,0,*72
1486372004.83,50927,11.38,72696.8,1.05,-35.23,-35.47,0,*72
1486372006.06,50928,11.38,72696.3,1.05,-35.23,-35.47,0,*7D
1486372007.34,50929,11.38,72696.3,1.07,-35.41,-35.65,0,*7A
1486372008.6,50930,11.38,72698.8,1.07,-35.23,-35.47,0,*76
1486372009.83,50931,11.38,72698.3,1.07,-35.47,-35.47,0,*75
1486372011.11,50932,11.38,72698.8,1.09,-35.23,-35.41,0,*7C
1486372012.38,50933,11.38,72698.3,1.07,-36.37,-36.55,0,*73
1486372013.64,50934,11.38,72698.5,1.09,-36.37,-36.55,0,*7A
1486372014.87,50935,11.38,72698.0,1.09,-36.67,-37.03,0,*7C
1486372016.13,50936,11.38,72696.8,1.09,-36.49,-36.67,0,*70
1486372017.37,50937,11.38,72700.3,1.07,-36.55,-36.73,0,*77
1486372018.61,50938,11.38,72698.8,1.07,-36.01,-36.01,0,*7C
1486372019.86,50939,11.38,72696.8,1.05,-35.65,-35.65,0,*7F
1486372021.12,50940,11.38,72698.0,1.07,-36.19,-36.37,0,*7F
1486372022.34,50941,11.38,72698.3,1.05,-36.07,-36.37,0,*73
1486372023.61,50942,11.38,72696.0,1.07,-36.37,-36.55,0,*75
1486372024.84,50943,11.38,72696.5,1.07,-36.01,-36.19,0,*79
1486372026.08,50944,11.38,72696.5,1.07,-36.01,-36.07,0,*71
1486372027.34,50945,11.38,72696.3,1.07,-35.95,-36.07,0,*7E
1486372028.6,50946,11.38,72700.0,1.07,-36.19,-36.25,0,*7A
1486372029.83,50947,11.38,72700.5,1.07,-36.07,-36.19,0,*7B
1486372031.1,50948,11.38,72698.8,1.07,-36.25,-36.55,0,*7C
1486372032.37,50949,11.38,72700.5,1.07,-35.95,-36.01,0,*74
1486372033.57,50950,11.38,72700.8,1.05,-36.07,-36.19,0,*7F
1486372034.87,50951,11.38,72700.0,1.07,-35.83,-35.83,0,*73
1486372036.13,50952,11.38,72702.5,1.07,-35.23,-35.29,0,*7A
1486372037.39,50953,11.38,72700.3,1.09,-35.07,-35.17,0,*7E
1486372038.64,50954,11.38,72700.5,1.11,-35.35,-35.35,0,*71
1486372039.89,50955,11.38,72700.0,1.09,-35.59,-35.53,0,*73
1486372041.12,50956,11.38,72702.5,1.09,-36.55,-36.73,0,*7E
1486372042.37,50957,11.38,72698.0,1.09,-36.19,-36.37,0,*77
1486372043.63,50958,11.38,72700.5,1.09,-36.13,-36.31,0,*74
1486372044.86,50959,11.38,72698.5,1.11,-36.43,-36.49,0,*76
1486372046.12,50960,11.38,72700.0,1.09,-36.49,-36.67,0,*73
1486372047.37,50961,11.38,72696.8,1.09,-37.03,-37.09,0,*74
1486372048.63,50962,11.38,72698.3,1.09,-36.37,-36.55,0,*79
1486372049.84,50963,11.38,72700.0,1.05,-36.01,-36.19,0,*79
1486372051.13,50964,11.38,72698.5,1.07,-35.83,-35.83,0,*75
1486372052.36,50965,11.38,72698.3,1.07,-35.47,-35.59,0,*7B
1486372053.6,50966,11.38,72698.5,1.09,-35.71,-35.77,0,*7F
1486372054.83,50967,11.38,72700.3,1.11,-35.95,-36.07,0,*79
1486372056.06,50968,11.38,72700.0,1.09,-35.59,-35.77,0,*7B
1486372057.34,50969,11.38,72700.3,1.09,-35.95,-36.13,0,*7B
1486372058.61,50970,11.38,72698.5,1.09,-36.37,-36.55,0,*7A
1486372059.87,50971,11.38,72700.8,1.09,-35.95,-36.01,0,*71
1486372061.1,50972,11.38,72698.8,1.11,-35.13,-35.41,0,*72
1486372062.34,50973,11.38,72700.5,1.11,-34.83,-35.13,0,*7C
1486372063.54,50974,11.38,72702.8,1.11,-35.13,-35.17,0,*77
1486372064.78,50975,11.38,72700.0,1.11,-35.89,-35.95,0,*7F
1486372066.02,50976,11.38,72698.0,1.09,-36.55,-36.67,0,*79
1486372067.26,50977,11.38,72702.3,1.11,-36.31,-36.25,0,*75
1486372068.48,50978,11.38,72702.5,1.11,-35.65,-35.71,0,*7A
1486372069.75,50979,11.38,72702.5,1.13,-35.89,-35.95,0,*71
1486372071.04,50980,11.38,72702.0,1.13,-35.83,-35.95,0,*7D
1486372072.3,50981,11.38,72702.3,1.13,-36.07,-36.25,0,*7B
1486372073.56,50982,11.38,72700.8,1.13,-36.43,-36.61,0,*78
1486372074.82,50983,11.38,72698.8,1.13,-36.43,-36.61,0,*79
1486372076.05,50984,11.38,72700.8,1.11,-36.31,-36.49,0,*73
1486372077.29,50985,11.38,72696.8,1.11,-36.31,-36.49,0,*72
1486372078.51,50986,11.38,72702.3,1.11,-35.53,-35.47,0,*7B
1486372079.76,50987,11.38,72702.0,1.11,-35.35,-35.35,0,*7F
1486372081.03,50988,11.38,72702.8,1.11,-35.83,-35.95,0,*77
1486372082.27,50989,11.38,72700.5,1.11,-35.89,-35.95,0,*7C
1486372083.5,50990,11.38,72702.3,1.11,-35.71,-35.53,0,*79
1486372084.71,50991,11.38,72702.8,1.11,-36.07,-36.07,0,*78
1486372085.99,50992,11.38,72702.0,1.13,-36.25,-36.13,0,*7C
1486372087.2,50993,11.38,72702.5,1.15,-35.59,-35.47,0,*71
1486372088.44,50994,11.38,72700.0,1.13,-35.71,-35.71,0,*7F
1486372089.7,50995,11.38,72700.8,1.13,-34.95,-35.13,0,*71
1486372090.92,50996,11.38,72700.3,1.15,-34.71,-34.77,0,*7D
1486372092.15,50997,11.38,72702.3,1.17,-35.47,-35.29,0,*70
1486372093.41,50998,11.38,72702.8,1.17,-35.47,-35.41,0,*71
1486372094.66,50999,11.38,72700.5,1.17,-35.89,-35.83,0,*7C
1486372095.92,51000,11.38,72700.0,1.17,-35.65,-35.77,0,*7D
1486372097.18,51001,11.38,72700.5,1.17,-35.77,-35.83,0,*74
1486372098.43,51002,11.38,72702.3,1.21,-35.17,-35.23,0,*7E
1486372099.67,51003,11.38,72702.3,1.17,-35.65,-35.71,0,*78
1486372100.93,51004,11.38,72700.8,1.21,-35.01,-35.07,0,*79
1486372102.19,51005,11.38,72700.5,1.21,-35.07,-35.17,0,*7F
1486372103.41,51006,11.38,72702.0,1.23,-35.47,-35.65,0,*7F
1486372104.62,51007,11.38,72702.3,1.23,-36.31,-36.43,0,*7B
1486372105.83,51008,11.38,72704.8,1.23,-36.67,-36.67,0,*71